Location: Larrial
(48.2758°N, 4.5331°W)
Time: 23:52:40
(UTC+00:00)

AAUSAT CUBESAT 2 - Pass Details

Date: 04 December 2021
Orbit: 571 x 586 km, 97.5° (Epoch: 19 January)

Event Time Altitude Azimuth Distance (km) Brightness Sun altitude
Rises 17:55:30 0° 217° (SW) 2,770 ? -14.4°
Reaches altitude 10° 17:58:57 10° 249° (WSW) 1,878 ? -14.9°
Maximum altitude 18:00:34 12° 272° (W) 1,749 ? -15.2°
Drops below altitude 10° 18:02:17 10° 297° (WNW) 1,900 ? -15.5°
Sets 18:05:40 0° 328° (NNW) 2,790 ? -16.0°
